{"data":{"norad_id":61918,"intl_designator":"2024-207G","name":"STARLINK-32555","alt_names":[],"object_type":"PAYLOAD","status":"ACTIVE","operator":null,"country":"US","launch_date":"2024-11-11","launch_site_code":"AFETR","launch_vehicle":null,"mission":null,"orbit_class":"UNKNOWN","rcs_meters":null,"size_class":null,"mass_kg":null,"dimensions":null,"purposes":["comms"],"wikipedia_slug":null,"has_3d_model":false,"image_url":null,"decayed_at":null,"tle_current":{"epoch":"2026-09-21T08:49:57.222624Z","epoch_age_seconds":113909,"freshness":"FRESH","line1":"1 61918U 24207G   26264.36802341  .00014008  00000+0  51706-3 0  9991","line2":"2 61918  43.0057 260.5367 0001877 285.7186  74.3458 15.27614360104602","mean_motion":15.2761436,"eccentricity":0.0001877,"inclination_deg":43.0057,"raan_deg":260.5367,"arg_perigee_deg":285.7186,"mean_anomaly_deg":74.3458,"bstar":0.00051706,"rev_number":10460,"period_min":94.264628410537,"perigee_km":481.65838644834,"apogee_km":484.23403708604,"semimajor_km":6861.0832117672,"source":"CELESTRAK","updated_at":"2026-09-22T09:00:49.449702Z"}}}